Location: Aufkirchen
(47.9603°N, 11.3653°E)
Time: 21:55:01
(UTC+02:00)

Altair - Pass Details

Date: 05 August 2021
Orbit: 1501 x 1682 km, 47.2° (Epoch: 22 September)

Event Time Altitude Azimuth Distance (km) Brightness Sun altitude
Exits shadow 04:21:20 - 264° (W) 4,143 9.3 -13.6°
Reaches altitude 10° 04:22:37 10° 264° (W) 3,726 9.1 -13.5°
Maximum altitude 04:32:01 87° 177° (S) 1,521 7.4 -12.3°
Drops below altitude 10° 04:41:13 10° 90° (E) 3,653 10.2 -11.2°
Sets 04:44:13 0° 90° (E) 4,634 10.9 -10.8°
